User: anonymous   Login
Location: Beaurevoir
(49.9971°N, 3.3085°E)
Time: 00:55:43
(UTC+00:00)
Language:

Meteor 1-4 Rocket - Orbit

View from above orbital plane
View from above orbital plane
View from above satellite
View from above satellite

Ground track
Ground track

The orbit data is extracted from the following two-line orbital elements,

1  4394U 70037B   24194.81095206  .00063345  00000-0  53564-3 0  9995
2  4394  81.2258 192.6037 0016699 208.6387 151.3955 15.69309094960786
Epoch (UTC): 12 July 2024 19:27:46
Eccentricity: 0.0016699
inclination: 81.2258°
perigee height: 349 km
apogee height: 372 km
right ascension of ascending node: 192.6037°
argument of perigee: 208.6387°
revolutions per day: 15.69309094
mean anomaly at epoch: 151.3955°
orbit number at epoch: 96078

The dashed part of the orbit path shows where the satellite is in the earth's shadow,  

DLR